Stations météo

réclame
Mon MeteoGroup
Vidsel, Suède (2154): Température de l'air & dewpoint: 18.10.2018 07:00:00 - 24.10.2018 07:00:00 (CEST)Vidsel, Suède (2154): Vitesse du vent & gusts: 18.10.2018 07:00:00 - 24.10.2018 07:00:00 (CEST)Vidsel, Suède (2154): Direction du vent: 18.10.2018 07:00:00 - 24.10.2018 07:00:00 (CEST)Vidsel, Suède (2154): reduced air pressure: 18.10.2018 07:00:00 - 24.10.2018 07:00:00 (CEST)Vidsel, Suède (2154): visibility: 18.10.2018 07:00:00 - 24.10.2018 07:00:00 (CEST)Vidsel, Suède (2154): Quantités de précipitations: 18.10.2018 07:00:00 - 24.10.2018 07:00:00 (CEST)
Date & Time tt [°C] td [°C] ff [km/h] ff [knt] fx [km/h] fx [knt] dd ppp [hPa] vv [km] rr [mm]
24.10.2018 07:00:00 -8,0 -9,0 2 1 - - - - 10 -
24.10.2018 06:00:00 -8,5 -9,6 2 1 7 4 - 996,1 10 0,0
24.10.2018 05:00:00 -6,9 -7,7 4 2 7 4 W 995,8 10 0,0
24.10.2018 04:00:00 -6,7 -7,6 4 2 7 4 W 995,3 10 0,0
24.10.2018 03:00:00 -6,0 -6,8 5 3 7 4 WNW 994,9 10 0,0
24.10.2018 02:00:00 -6,1 -6,9 2 1 4 2 - 994,4 10 0,0
24.10.2018 01:00:00 -5,7 -6,5 2 1 4 2 - 994,1 10 0,0
24.10.2018 00:00:00 -5,1 -5,6 2 1 7 4 - 993,6 10 0,0
23.10.2018 23:00:00 -3,9 -4,7 4 2 7 4 - 993,0 10 0,0
23.10.2018 22:00:00 -3,5 -4,2 5 3 7 4 NW 992,5 10 0,0
23.10.2018 21:00:00 -3,1 -3,8 9 5 11 6 WNW 991,9 10 0,0
23.10.2018 20:00:00 -3,3 -4,0 8 4 7 4 WNW 991,3 10 0,0
23.10.2018 19:00:00 -2,5 -3,3 2 1 4 2 - 991,1 10 0,0
23.10.2018 18:00:00 -2,3 -3,4 4 2 7 4 WNW 990,7 10 0,0
23.10.2018 17:00:00 -1,0 -2,6 4 2 7 4 E 990,2 10 0,0
23.10.2018 16:00:00 0,4 -2,1 5 3 7 4 ESE 990,0 10 0,0
23.10.2018 15:00:00 1,4 -1,8 4 2 7 4 ESE 989,7 10 0,0
23.10.2018 14:00:00 2,3 -1,9 4 2 4 2 NNE 989,6 10 0,0
23.10.2018 13:00:00 2,2 -2,3 2 1 4 2 E 989,8 10 0,0
23.10.2018 12:00:00 1,3 -2,3 2 1 7 4 - 990,1 10 0,0
23.10.2018 11:00:00 0,0 -2,5 2 1 4 2 - 990,4 10 0,0
23.10.2018 10:00:00 -3,3 -4,3 2 1 7 4 NNW 990,7 10 0,0
23.10.2018 09:00:00 -4,7 -5,5 2 1 4 2 - 990,9 10 0,0
23.10.2018 08:00:00 -4,1 -4,9 2 1 7 4 - 990,9 10 0,0
23.10.2018 07:00:00 -4,1 -5,5 0 0 7 4 N 991,0 10 0,0
23.10.2018 06:00:00 -3,4 -4,7 4 2 14 8 WNW 991,1 10 0,0
23.10.2018 05:00:00 -1,5 -3,8 11 6 18 10 WNW 991,5 10 0,0
23.10.2018 04:00:00 -0,2 -3,2 11 6 18 10 W 991,7 10 0,0
23.10.2018 03:00:00 0,3 -3,1 11 6 18 10 W 992,3 10 0,0
23.10.2018 02:00:00 0,8 -3,1 13 7 22 12 W 992,6 10 0,0
23.10.2018 01:00:00 0,8 -3,3 11 6 18 10 W 993,2 10 0,0
23.10.2018 00:00:00 1,7 -3,4 15 8 22 12 W 993,5 10 0,0
22.10.2018 23:00:00 1,7 -3,4 9 5 22 12 W 993,7 10 0,0
22.10.2018 22:00:00 1,5 -3,4 13 7 22 12 W 994,1 10 0,0
22.10.2018 21:00:00 2,3 -2,8 15 8 22 12 W 994,3 10 0,0
22.10.2018 20:00:00 2,5 -2,4 13 7 22 12 W 994,4 10 0,0
22.10.2018 19:00:00 2,8 -2,1 11 6 22 12 W 994,6 10 0,0
22.10.2018 18:00:00 3,3 -2,0 9 5 25 14 W 994,8 10 0,0
22.10.2018 17:00:00 4,1 -2,1 18 10 32 18 W 994,6 10 0,0
22.10.2018 16:00:00 5,1 -1,8 21 11 32 18 W 993,8 10 0,0
22.10.2018 15:00:00 5,4 -1,7 15 8 32 18 W 993,9 10 0,0
22.10.2018 14:00:00 5,2 -1,5 18 10 32 18 W 993,8 10 0,0
22.10.2018 13:00:00 4,8 -1,4 21 11 50 27 W 993,9 10 0,0
22.10.2018 12:00:00 5,0 -0,6 18 10 36 19 W 993,9 10 0,0
22.10.2018 11:00:00 3,8 -0,6 5 3 25 14 SSW 994,6 10 0,0
22.10.2018 10:00:00 3,0 -1,7 8 4 22 12 WSW 995,2 10 0,0
22.10.2018 09:00:00 2,3 -2,0 4 2 22 12 - 995,9 10 0,0
22.10.2018 08:00:00 1,9 -2,1 9 5 18 10 W 996,4 10 0,0
22.10.2018 07:00:00 2,2 -1,6 13 7 22 12 W 996,6 10 0,0
22.10.2018 06:00:00 3,2 -1,2 9 5 29 16 W 996,4 10 0,0
22.10.2018 05:00:00 2,8 -1,4 9 5 22 12 W 996,8 10 0,0
22.10.2018 04:00:00 3,4 -0,8 11 6 25 14 W 996,9 10 0,0
22.10.2018 03:00:00 4,3 0,1 11 6 25 14 W 996,8 10 0,0
22.10.2018 02:00:00 5,2 0,2 9 5 25 14 WSW 996,8 10 0,0
22.10.2018 01:00:00 5,7 0,7 11 6 22 12 WSW 997,0 10 0,0
22.10.2018 00:00:00 5,9 1,2 8 4 14 8 SW 997,0 10 0,0
21.10.2018 23:00:00 6,2 1,5 5 3 14 8 WSW 997,3 10 0,0
21.10.2018 22:00:00 7,1 2,2 9 5 14 8 WSW 998,1 10 0,0
21.10.2018 21:00:00 7,3 2,6 11 6 22 12 W 998,7 10 0,0
21.10.2018 20:00:00 7,1 3,0 8 4 18 10 W 999,5 10 0,0
21.10.2018 19:00:00 8,1 3,2 11 6 25 14 WSW 999,5 10 0,0
21.10.2018 18:00:00 8,2 3,3 11 6 29 16 WSW 1000,0 10 0,0
21.10.2018 17:00:00 8,6 3,2 13 7 36 19 WSW 1000,5 10 0,0
21.10.2018 16:00:00 8,9 3,7 16 9 40 21 WSW 1000,6 10 0,0
21.10.2018 15:00:00 8,7 4,3 16 9 29 16 WSW 1000,9 10 0,0
21.10.2018 14:00:00 8,3 4,1 18 10 43 23 SW 1001,7 10 0,0
21.10.2018 13:00:00 8,9 4,1 24 13 43 23 WSW 1001,7 10 0,0
21.10.2018 12:00:00 8,1 4,5 16 9 32 18 WSW 1002,2 10 0,0
21.10.2018 11:00:00 7,2 4,7 15 8 32 18 WSW 1002,9 10 0,0
21.10.2018 10:00:00 6,0 3,8 18 10 36 19 WSW 1003,3 10 0,0
21.10.2018 09:00:00 5,4 3,2 11 6 29 16 WSW 1003,0 10 0,0
21.10.2018 08:00:00 5,4 3,2 15 8 29 16 WSW 1003,8 10 0,0
21.10.2018 07:00:00 5,0 3,3 13 7 40 21 - 1004,2 10 0,7
21.10.2018 06:00:00 5,5 2,7 11 6 29 16 SSW 1005,0 10 0,0
21.10.2018 05:00:00 4,7 2,9 13 7 25 14 SSW 1006,6 10 1,0
21.10.2018 04:00:00 5,4 2,2 9 5 25 14 SSW 1009,1 10 0,0
21.10.2018 03:00:00 4,0 2,2 9 5 18 10 SSW 1010,0 10 0,0
21.10.2018 02:00:00 0,9 0,6 4 2 14 8 - 1011,4 10 0,0
21.10.2018 01:00:00 0,0 -0,3 4 2 7 4 - 1012,9 10 0,0
21.10.2018 00:00:00 -1,4 -1,7 5 3 7 4 SE 1013,3 10 0,0
20.10.2018 23:00:00 0,9 0,6 5 3 11 6 SE 1014,4 10 0,0
20.10.2018 22:00:00 1,5 0,9 4 2 11 6 - 1015,0 10 0,0
20.10.2018 21:00:00 -0,1 -0,4 4 2 4 2 NNE 1016,0 10 0,0
20.10.2018 20:00:00 0,3 -0,1 0 0 4 2 N 1015,9 10 0,0
20.10.2018 19:00:00 2,4 1,8 2 1 11 6 - 1016,2 10 0,0
20.10.2018 18:00:00 3,5 2,5 2 1 7 4 - 1016,3 10 0,0
20.10.2018 17:00:00 6,6 3,4 4 2 14 8 - 1016,2 10 0,0
20.10.2018 16:00:00 7,4 3,6 9 5 22 12 W 1016,4 10 0,0
20.10.2018 15:00:00 8,6 4,2 4 2 22 12 - 1016,1 10 0,0
20.10.2018 14:00:00 6,9 4,0 2 1 7 4 - 1016,2 10 0,0
20.10.2018 13:00:00 4,9 3,2 2 1 4 2 NE 1016,6 10 0,0
20.10.2018 12:00:00 3,2 2,3 4 2 4 2 SSE 1017,1 10 0,0
20.10.2018 11:00:00 1,7 1,1 2 1 7 4 - 1017,1 10 0,0
20.10.2018 10:00:00 -0,1 -0,5 2 1 4 2 WNW 1016,9 10 0,0
20.10.2018 09:00:00 -0,6 -1,2 2 1 4 2 - 1016,7 10 0,0
20.10.2018 08:00:00 -0,9 -1,3 0 0 4 2 N 1016,7 10 0,0
20.10.2018 07:00:00 -1,3 -1,9 0 0 4 2 N 1016,7 10 0,0
20.10.2018 06:00:00 -1,5 -2,1 0 0 4 2 N 1016,7 10 0,0
20.10.2018 05:00:00 -1,2 -1,8 4 2 7 4 NW 1016,6 10 0,0
20.10.2018 04:00:00 -0,9 -1,6 0 0 4 2 N 1016,4 10 0,0
20.10.2018 03:00:00 0,2 -0,9 4 2 4 2 WNW 1016,6 10 0,0
20.10.2018 02:00:00 -0,5 -1,5 2 1 4 2 W 1016,8 10 0,0
20.10.2018 01:00:00 -0,6 -1,6 2 1 7 4 WNW 1017,0 10 0,0
20.10.2018 00:00:00 -1,1 -2,1 0 0 4 2 N 1016,8 10 0,0
19.10.2018 23:00:00 -1,6 -2,6 2 1 7 4 - 1016,9 10 0,0
19.10.2018 22:00:00 -1,6 -2,6 0 0 7 4 N 1016,7 10 0,0
19.10.2018 21:00:00 -1,4 -2,7 2 1 7 4 - 1016,6 10 0,0
19.10.2018 20:00:00 2,6 0,5 8 4 11 6 NW 1016,1 10 0,0
19.10.2018 19:00:00 4,1 1,0 4 2 11 6 - 1015,8 10 0,0
19.10.2018 18:00:00 3,9 0,1 9 5 14 8 W 1015,5 10 0,0
19.10.2018 17:00:00 6,9 1,2 8 4 22 12 WNW 1014,8 10 0,0
19.10.2018 16:00:00 9,1 1,5 16 9 29 16 WNW 1014,1 10 0,0
19.10.2018 15:00:00 10,0 1,9 21 11 40 21 WNW 1013,8 10 0,0
19.10.2018 14:00:00 9,8 1,9 26 14 40 21 WNW 1013,5 10 0,0
19.10.2018 13:00:00 9,4 2,5 24 13 40 21 WNW 1013,2 10 0,0
19.10.2018 12:00:00 8,8 2,4 26 14 40 21 WNW 1012,8 10 0,0
19.10.2018 11:00:00 8,4 2,2 21 11 40 21 WNW 1012,4 10 0,0
19.10.2018 10:00:00 7,5 2,0 18 10 32 18 W 1011,6 10 0,0
19.10.2018 09:00:00 6,7 1,6 18 10 32 18 W 1011,2 10 0,0
19.10.2018 08:00:00 6,2 1,5 16 9 25 14 W 1010,2 10 0,0
19.10.2018 07:00:00 6,2 1,3 13 7 25 14 W 1009,7 10 0,0
19.10.2018 06:00:00 6,3 1,4 15 8 32 18 W 1008,9 10 0,0
19.10.2018 05:00:00 6,6 1,5 18 10 32 18 W 1008,3 10 0,0
19.10.2018 04:00:00 6,7 1,2 16 9 29 16 W 1007,7 10 0,0
19.10.2018 03:00:00 6,5 1,2 15 8 25 14 W 1007,0 10 0,0
19.10.2018 02:00:00 6,3 1,2 15 8 36 19 W 1006,7 10 0,0
19.10.2018 01:00:00 6,7 1,2 18 10 36 19 W 1006,0 10 0,0
19.10.2018 00:00:00 6,6 1,1 16 9 25 14 W 1006,1 10 0,0
18.10.2018 23:00:00 6,5 1,4 16 9 32 18 W 1006,1 10 0,0
18.10.2018 22:00:00 7,1 1,6 18 10 32 18 W 1005,7 10 0,0
18.10.2018 21:00:00 7,3 1,6 18 10 32 18 W 1005,5 10 0,0
18.10.2018 20:00:00 7,2 1,5 16 9 29 16 W 1005,6 10 0,0
18.10.2018 19:00:00 7,4 1,7 15 8 29 16 W 1005,6 10 0,0
18.10.2018 18:00:00 7,2 1,5 13 7 29 16 W 1005,5 10 0,0
18.10.2018 17:00:00 7,4 0,8 9 5 29 16 SW 1005,7 10 0,0
18.10.2018 16:00:00 7,7 0,9 15 8 29 16 WSW 1005,7 10 0,0
18.10.2018 15:00:00 8,6 0,8 9 5 36 19 - 1006,0 10 0,0
18.10.2018 14:00:00 8,7 0,9 21 11 32 18 W 1005,8 10 0,0
18.10.2018 13:00:00 8,3 1,7 18 10 32 18 W 1006,3 10 0,0
18.10.2018 12:00:00 7,7 2,0 21 11 32 18 W 1006,7 10 0,0
18.10.2018 11:00:00 7,1 1,6 11 6 25 14 W 1007,1 10 0,0
18.10.2018 10:00:00 5,7 1,6 4 2 18 10 - 1007,5 10 0,0
18.10.2018 09:00:00 4,6 1,8 11 6 22 12 WSW 1007,6 10 0,0
18.10.2018 08:00:00 3,6 1,2 5 3 18 10 - 1007,5 10 0,0
18.10.2018 07:00:00 5,5 1,6 9 5 22 12 W 1007,1 10 0,0

tt = Température de l'air
td = dewpoint
ff = Vitesse du vent
fx = gusts
dd = Direction du vent
ppp = reduced air pressure
vv = visibility
rr = Quantités de précipitations

stations d'obs. à proximité